Location: *
(49.8044°N, 4.0558°E)
Time: 05:00:40
(UTC+00:00)

Cosmos 2061 Rocket - Pass Details

Date: 09 April 2020
Orbit: 967 x 1012 km, 82.9° (Epoch: 01 June)

Event Time Altitude Azimuth Distance (km) Brightness Sun altitude
Rises 23:22:48 0° 350° (N) 3,687 8.2 -32.0°
Reaches altitude 10° 23:25:18 10° 350° (N) 2,740 7.2 -32.0°
Enters shadow 23:30:55 73° 352° (N) 1,032 4.1 -32.1°
